TimePDT,TemperatureF,Dew PointF,Humidity,Sea Level PressureIn,VisibilityMPH,Wind Direction,Wind SpeedMPH,Gust SpeedMPH,PrecipitationIn,Events,Conditions,WindDirDegrees,DateUTC
12:53 AM,75.0,57.9,55,29.92,10.0,WNW,5.8,-,N/A,,Clear,290,2012-10-19 07:53:00
1:53 AM,73.0,57.9,59,29.92,10.0,WNW,3.5,-,N/A,,Clear,290,2012-10-19 08:53:00
2:53 AM,69.1,59.0,70,29.91,10.0,Calm,Calm,-,N/A,,Clear,0,2012-10-19 09:53:00
3:53 AM,66.9,59.0,76,29.89,10.0,Calm,Calm,-,N/A,,Clear,0,2012-10-19 10:53:00
4:53 AM,71.1,57.0,61,29.89,10.0,NW,8.1,-,N/A,,Clear,310,2012-10-19 11:53:00
5:53 AM,71.1,55.9,59,29.89,10.0,NW,4.6,-,N/A,,Clear,310,2012-10-19 12:53:00
6:53 AM,71.1,55.0,57,29.89,10.0,NNW,9.2,-,N/A,,Clear,330,2012-10-19 13:53:00
7:53 AM,73.0,53.1,49,29.91,10.0,NW,6.9,-,N/A,,Clear,320,2012-10-19 14:53:00
8:53 AM,77.0,54.0,45,29.92,10.0,NNW,3.5,-,N/A,,Clear,340,2012-10-19 15:53:00
9:53 AM,82.0,54.0,38,29.91,10.0,Calm,Calm,-,N/A,,Clear,0,2012-10-19 16:53:00
10:53 AM,87.1,46.9,25,29.89,10.0,South,3.5,-,N/A,,Clear,180,2012-10-19 17:53:00
11:53 AM,91.9,43.0,18,29.87,10.0,SE,4.6,-,N/A,,Clear,140,2012-10-19 18:53:00
12:53 PM,95.0,35.1,12,29.83,10.0,SE,4.6,-,N/A,,Clear,130,2012-10-19 19:53:00
1:53 PM,98.1,26.1,8,29.79,10.0,ENE,3.5,-,N/A,,Clear,60,2012-10-19 20:53:00
2:53 PM,97.0,23.0,7,29.77,10.0,SE,6.9,-,N/A,,Clear,140,2012-10-19 21:53:00
3:53 PM,97.0,27.0,8,29.76,10.0,SE,4.6,-,N/A,,Clear,140,2012-10-19 22:53:00
4:53 PM,97.0,28.9,9,29.74,10.0,Variable,5.8,-,N/A,,Clear,0,2012-10-19 23:53:00
5:53 PM,93.0,44.1,18,29.74,10.0,NW,6.9,-,N/A,,Clear,320,2012-10-20 00:53:00
6:53 PM,88.0,36.0,16,29.75,10.0,SSE,4.6,-,N/A,,Clear,160,2012-10-20 01:53:00
7:53 PM,87.1,42.1,21,29.76,10.0,Variable,4.6,-,N/A,,Clear,0,2012-10-20 02:53:00
8:53 PM,84.0,55.9,38,29.78,10.0,NW,10.4,-,N/A,,Clear,320,2012-10-20 03:53:00
9:53 PM,81.0,55.9,42,29.78,10.0,NW,12.7,-,N/A,,Clear,320,2012-10-20 04:53:00
10:53 PM,75.9,54.0,46,29.78,10.0,Calm,Calm,-,N/A,,Clear,0,2012-10-20 05:53:00
11:53 PM,73.0,55.9,55,29.77,10.0,South,4.6,-,N/A,,Clear,170,2012-10-20 06:53:00